Location: Bovenkerk
(52.2915°N, 4.8336°E)
Time: 16:42:20
(UTC+00:00)

ISS - Visible Passes

Search period start: 08 March 2021 00:00
Search period end: 18 March 2021 00:00
Orbit: 417 x 422 km, 51.6° (Epoch: 08 March)

Date Brightness Start Highest point End Pass type
(mag) Time Alt. Az. Time Alt. Az. Time Alt. Az.
08 Mar -1.1 03:13:12 18° E 03:13:12 18° E 03:14:08 10° E visible
08 Mar -3.1 04:46:09 27° WSW 04:47:24 38° SSW 04:50:33 10° SE visible
09 Mar -3.0 04:00:41 41° SSE 04:00:41 41° SSE 04:03:15 10° SE visible
10 Mar -1.0 03:15:17 14° ESE 03:15:17 14° ESE 03:15:53 10° ESE visible
10 Mar -2.3 04:48:16 20° SW 04:48:57 21° SW 04:51:33 10° SSE visible
11 Mar -1.9 04:03:00 21° SSE 04:03:00 21° SSE 04:04:33 10° SSE visible
